IBE044G LESO-LEMD

Flight info

Callsign IBE044G
Flight time 0h 46m
Altitude 33000
Route PPN N10 NOLSA N857 VASUM N10 BANEV
Aircraft A20N/M-SDE3FGHIRWY/LB1

Departure

Time 2026-04-30 20:26
Airport San Sebastián Airport (LESO)

Arrival

Time 2026-04-30 21:12
Airport Adolfo Suárez Madrid–Barajas Airport (LEMD)
Time Latitude Longitude Altitude Speed Heading
2026-04-30 19:58 43.35594 -1.79281 33 ft 0 kts 38°
2026-04-30 20:22 43.35618 -1.79250 33 ft 8 kts 60°
2026-04-30 20:22 43.35638 -1.79173 33 ft 9 kts 88°
2026-04-30 20:22 43.35592 -1.79128 33 ft 10 kts 204°
2026-04-30 20:23 43.35533 -1.79191 33 ft 11 kts 220°
2026-04-30 20:23 43.35470 -1.79264 33 ft 12 kts 219°
2026-04-30 20:23 43.35401 -1.79337 33 ft 13 kts 217°
2026-04-30 20:23 43.35328 -1.79417 33 ft 14 kts 219°
2026-04-30 20:24 43.35251 -1.79502 33 ft 14 kts 219°
2026-04-30 20:24 43.35172 -1.79591 33 ft 15 kts 219°
2026-04-30 20:24 43.35099 -1.79693 33 ft 15 kts 249°
2026-04-30 20:24 43.35057 -1.79724 33 ft 10 kts 81°
2026-04-30 20:25 43.35086 -1.79684 33 ft 21 kts 38°
2026-04-30 20:25 43.35435 -1.79302 33 ft 104 kts 39°
2026-04-30 20:26 43.36962 -1.77616 1074 ft 133 kts 37°
2026-04-30 20:26 43.38326 -1.76283 2243 ft 133 kts 27°
2026-04-30 20:26 43.39217 -1.75734 2724 ft 149 kts 21°
2026-04-30 20:27 43.41321 -1.74550 3829 ft 182 kts 19°
2026-04-30 20:27 43.43769 -1.75582 4981 ft 220 kts 304°
2026-04-30 20:28 43.44507 -1.79856 6379 ft 241 kts 280°
2026-04-30 20:28 43.45107 -1.84405 7946 ft 246 kts 281°
2026-04-30 20:29 43.45738 -1.89020 9452 ft 250 kts 280°
2026-04-30 20:30 43.46687 -1.96093 11547 ft 256 kts 274°
2026-04-30 20:30 43.43631 -2.01334 13663 ft 262 kts 206°
2026-04-30 20:31 43.38662 -2.04603 15694 ft 270 kts 208°
2026-04-30 20:32 43.33508 -2.07957 17633 ft 281 kts 196°
2026-04-30 20:32 43.29849 -2.06527 18789 ft 296 kts 132°
2026-04-30 20:33 43.28853 -2.04082 19359 ft 300 kts 107°
2026-04-30 20:33 43.26924 -1.99089 20453 ft 305 kts 138°
2026-04-30 20:33 43.25334 -1.97140 21026 ft 307 kts 142°
2026-04-30 20:34 43.21782 -1.93765 21876 ft 322 kts 150°
2026-04-30 20:34 43.17823 -1.90400 22380 ft 349 kts 149°
2026-04-30 20:35 43.15732 -1.88610 22513 ft 362 kts 150°
2026-04-30 20:35 43.13566 -1.86746 22670 ft 375 kts 150°
2026-04-30 20:35 43.08993 -1.82812 23132 ft 400 kts 151°
2026-04-30 20:36 43.06604 -1.80763 23375 ft 412 kts 151°
2026-04-30 20:36 43.04133 -1.78689 23589 ft 422 kts 154°
2026-04-30 20:36 42.98594 -1.75786 23978 ft 435 kts 171°
2026-04-30 20:37 42.95571 -1.75036 24196 ft 441 kts 174°
2026-04-30 20:37 42.92527 -1.74379 24531 ft 445 kts 174°
2026-04-30 20:37 42.89464 -1.73729 24909 ft 447 kts 174°
2026-04-30 20:37 42.86352 -1.73058 25278 ft 450 kts 174°
2026-04-30 20:38 42.83250 -1.72380 25660 ft 453 kts 174°
2026-04-30 20:38 42.80090 -1.71683 26048 ft 455 kts 174°
2026-04-30 20:38 42.76950 -1.71063 26416 ft 455 kts 179°
2026-04-30 20:39 42.70733 -1.72126 27128 ft 448 kts 202°
2026-04-30 20:39 42.67890 -1.73800 27475 ft 446 kts 209°
2026-04-30 20:39 42.65119 -1.75669 27805 ft 448 kts 209°
2026-04-30 20:40 42.59537 -1.79476 28295 ft 450 kts 209°
2026-04-30 20:40 42.56745 -1.81369 28584 ft 451 kts 208°
2026-04-30 20:40 42.53939 -1.83261 29015 ft 452 kts 208°
2026-04-30 20:41 42.48318 -1.87028 30412 ft 445 kts 207°
2026-04-30 20:41 42.45555 -1.88870 30914 ft 441 kts 207°
2026-04-30 20:41 42.42811 -1.90698 31323 ft 439 kts 207°
2026-04-30 20:41 42.40078 -1.92520 31658 ft 439 kts 207°
2026-04-30 20:42 42.37343 -1.94343 31919 ft 440 kts 207°
2026-04-30 20:42 42.34603 -1.96167 32160 ft 442 kts 207°
2026-04-30 20:42 42.29082 -1.99844 32625 ft 443 kts 207°
2026-04-30 20:43 42.26327 -2.01678 32841 ft 444 kts 207°
2026-04-30 20:43 42.23559 -2.03511 33062 ft 444 kts 207°
2026-04-30 20:43 42.20790 -2.05340 33112 ft 446 kts 207°
2026-04-30 20:44 42.12318 -2.10928 33132 ft 455 kts 207°
2026-04-30 20:45 42.00954 -2.18408 33148 ft 456 kts 207°
2026-04-30 20:45 41.95272 -2.22140 33153 ft 455 kts 207°
2026-04-30 20:46 41.83871 -2.29607 33157 ft 456 kts 207°
2026-04-30 20:47 41.75336 -2.35176 33120 ft 452 kts 207°
2026-04-30 20:48 41.69763 -2.38802 32291 ft 440 kts 206°
2026-04-30 20:48 41.67020 -2.40584 31374 ft 443 kts 206°
2026-04-30 20:48 41.64254 -2.42381 30346 ft 447 kts 207°
2026-04-30 20:48 41.61462 -2.44192 29312 ft 450 kts 207°
2026-04-30 20:49 41.58650 -2.46016 28240 ft 454 kts 206°
2026-04-30 20:49 41.55815 -2.47852 27158 ft 457 kts 206°
2026-04-30 20:49 41.52950 -2.49705 26269 ft 455 kts 206°
2026-04-30 20:50 41.47349 -2.53321 24961 ft 443 kts 206°
2026-04-30 20:50 41.44598 -2.55094 24360 ft 438 kts 206°
2026-04-30 20:50 41.41882 -2.56844 23779 ft 433 kts 206°
2026-04-30 20:50 41.39197 -2.58572 23214 ft 428 kts 206°
2026-04-30 20:51 41.36526 -2.60288 22659 ft 424 kts 206°
2026-04-30 20:51 41.30948 -2.62544 21539 ft 415 kts 187°
2026-04-30 20:51 41.28088 -2.62626 20999 ft 412 kts 179°
2026-04-30 20:52 41.25233 -2.62388 20460 ft 408 kts 177°
2026-04-30 20:52 41.22415 -2.62115 19928 ft 404 kts 177°
2026-04-30 20:52 41.16866 -2.61591 18857 ft 396 kts 178°
2026-04-30 20:53 41.14117 -2.61339 18326 ft 393 kts 178°
2026-04-30 20:53 41.11406 -2.61095 17796 ft 388 kts 178°
2026-04-30 20:53 41.08726 -2.60857 17268 ft 385 kts 178°
2026-04-30 20:54 41.03420 -2.60389 16214 ft 380 kts 178°
2026-04-30 20:54 41.00796 -2.60156 15684 ft 377 kts 178°
2026-04-30 20:54 40.98182 -2.59924 15154 ft 374 kts 178°
2026-04-30 20:55 40.92962 -2.59463 15005 ft 376 kts 178°
2026-04-30 20:55 40.90345 -2.59233 15028 ft 376 kts 178°
2026-04-30 20:55 40.87715 -2.59001 15053 ft 376 kts 178°
2026-04-30 20:56 40.82588 -2.59766 15081 ft 369 kts 207°
2026-04-30 20:56 40.80492 -2.61712 14780 ft 368 kts 225°
2026-04-30 20:56 40.76958 -2.66519 14213 ft 360 kts 225°
2026-04-30 20:57 40.75211 -2.68881 13978 ft 357 kts 225°
2026-04-30 20:57 40.73474 -2.71216 13774 ft 355 kts 225°
2026-04-30 20:57 40.71750 -2.73525 13598 ft 353 kts 225°
2026-04-30 20:58 40.68321 -2.78098 13288 ft 350 kts 225°
2026-04-30 20:58 40.66602 -2.80381 13144 ft 346 kts 224°
2026-04-30 20:58 40.64781 -2.82354 13030 ft 332 kts 214°
2026-04-30 20:58 40.62886 -2.83932 13041 ft 314 kts 212°
2026-04-30 20:59 40.59360 -2.86754 13046 ft 281 kts 212°
2026-04-30 20:59 40.57740 -2.88050 13043 ft 265 kts 212°
2026-04-30 21:00 40.54684 -2.90497 13051 ft 255 kts 212°
2026-04-30 21:00 40.51662 -2.92929 13048 ft 255 kts 212°
2026-04-30 21:01 40.48630 -2.95361 13021 ft 256 kts 212°
2026-04-30 21:01 40.47107 -2.96588 12703 ft 257 kts 212°
2026-04-30 21:01 40.44071 -2.99018 12091 ft 254 kts 212°
2026-04-30 21:02 40.42568 -3.00228 11774 ft 253 kts 212°
2026-04-30 21:02 40.41072 -3.01432 11478 ft 251 kts 211°
2026-04-30 21:02 40.39578 -3.02628 11159 ft 252 kts 211°
2026-04-30 21:02 40.38088 -3.03820 10877 ft 250 kts 211°
2026-04-30 21:03 40.36606 -3.05007 10562 ft 251 kts 211°
2026-04-30 21:03 40.35121 -3.06194 10262 ft 249 kts 211°
2026-04-30 21:03 40.33638 -3.07376 9960 ft 248 kts 211°
2026-04-30 21:03 40.32173 -3.08541 9656 ft 247 kts 211°
2026-04-30 21:04 40.30710 -3.09706 9371 ft 246 kts 211°
2026-04-30 21:04 40.29252 -3.10867 9091 ft 245 kts 211°
2026-04-30 21:04 40.26521 -3.13451 8485 ft 245 kts 238°
2026-04-30 21:05 40.26044 -3.15553 8179 ft 246 kts 271°
2026-04-30 21:05 40.26306 -3.17770 7914 ft 246 kts 281°
2026-04-30 21:05 40.26632 -3.19951 7666 ft 244 kts 280°
2026-04-30 21:05 40.26936 -3.22121 7360 ft 243 kts 280°
2026-04-30 21:06 40.27230 -3.24282 7062 ft 241 kts 280°
2026-04-30 21:06 40.27516 -3.26427 6772 ft 239 kts 280°
2026-04-30 21:06 40.27798 -3.28556 6447 ft 239 kts 280°
2026-04-30 21:06 40.28077 -3.30673 6202 ft 234 kts 280°
2026-04-30 21:07 40.28508 -3.32699 5965 ft 229 kts 297°
2026-04-30 21:07 40.29291 -3.34477 5715 ft 225 kts 303°
2026-04-30 21:07 40.30244 -3.36074 5459 ft 222 kts 314°
2026-04-30 21:07 40.31381 -3.37431 5191 ft 222 kts 321°
2026-04-30 21:08 40.32596 -3.38647 5033 ft 217 kts 323°
2026-04-30 21:08 40.33776 -3.39799 5081 ft 207 kts 322°
2026-04-30 21:08 40.34882 -3.40899 5010 ft 196 kts 322°
2026-04-30 21:08 40.35954 -3.41984 4751 ft 192 kts 321°
2026-04-30 21:09 40.36987 -3.43040 4495 ft 187 kts 321°
2026-04-30 21:09 40.37992 -3.44069 4248 ft 181 kts 321°
2026-04-30 21:09 40.38964 -3.45064 4005 ft 173 kts 321°
2026-04-30 21:09 40.39868 -3.45985 3807 ft 157 kts 321°
2026-04-30 21:10 40.40703 -3.46837 3595 ft 151 kts 322°
2026-04-30 21:10 40.41527 -3.47678 3406 ft 150 kts 322°
2026-04-30 21:10 40.42357 -3.48524 3210 ft 150 kts 321°
2026-04-30 21:10 40.43177 -3.49359 3012 ft 149 kts 322°
2026-04-30 21:11 40.43995 -3.50192 2812 ft 149 kts 322°
2026-04-30 21:11 40.44809 -3.51026 2614 ft 149 kts 322°
2026-04-30 21:11 40.45620 -3.51862 2426 ft 149 kts 322°
2026-04-30 21:11 40.46442 -3.52679 2237 ft 149 kts 323°
2026-04-30 21:12 40.47255 -3.53502 2056 ft 147 kts 322°
2026-04-30 21:12 40.48060 -3.54330 1980 ft 142 kts 322°
2026-04-30 21:12 40.48723 -3.55004 1978 ft 97 kts 323°
2026-04-30 21:12 40.49103 -3.55388 1977 ft 38 kts 317°
2026-04-30 21:13 40.49226 -3.55635 1977 ft 28 kts 291°
2026-04-30 21:13 40.49286 -3.55814 1977 ft 16 kts 287°
2026-04-30 21:13 40.49300 -3.55958 1976 ft 16 kts 270°
2026-04-30 21:13 40.49291 -3.56103 1976 ft 16 kts 245°
2026-04-30 21:14 40.49191 -3.56136 1976 ft 16 kts 179°
2026-04-30 21:14 40.49080 -3.56135 1976 ft 16 kts 180°
2026-04-30 21:14 40.48968 -3.56134 1976 ft 16 kts 180°
2026-04-30 21:14 40.48853 -3.56132 1976 ft 17 kts 180°
2026-04-30 21:15 40.48770 -3.56200 1976 ft 16 kts 264°
2026-04-30 21:15 40.48766 -3.56350 1976 ft 17 kts 271°
2026-04-30 21:15 40.48768 -3.56501 1976 ft 17 kts 270°
2026-04-30 21:15 40.48766 -3.56654 1976 ft 17 kts 270°
2026-04-30 21:16 40.48766 -3.56806 1976 ft 17 kts 271°
2026-04-30 21:16 40.48766 -3.56959 1976 ft 17 kts 271°
2026-04-30 21:16 40.48766 -3.57113 1976 ft 17 kts 270°
2026-04-30 21:16 40.48766 -3.57267 1976 ft 17 kts 270°
2026-04-30 21:17 40.48766 -3.57422 1976 ft 17 kts 270°
2026-04-30 21:17 40.48767 -3.57576 1976 ft 17 kts 270°
2026-04-30 21:17 40.48766 -3.57733 1976 ft 17 kts 271°
2026-04-30 21:17 40.48767 -3.57888 1976 ft 17 kts 270°
2026-04-30 21:18 40.48747 -3.58034 1976 ft 17 kts 217°
2026-04-30 21:18 40.48635 -3.58055 1976 ft 16 kts 194°
2026-04-30 21:18 40.48602 -3.58182 1976 ft 16 kts 271°
2026-04-30 21:18 40.48602 -3.58329 1976 ft 16 kts 271°
2026-04-30 21:19 40.48603 -3.58477 1976 ft 16 kts 272°
2026-04-30 21:19 40.48605 -3.58628 1976 ft 16 kts 271°
2026-04-30 21:19 40.48608 -3.58777 1976 ft 16 kts 292°
2026-04-30 21:19 40.48707 -3.58820 1976 ft 16 kts
2026-04-30 21:20 40.48819 -3.58821 1976 ft 16 kts
2026-04-30 21:20 40.48933 -3.58820 1976 ft 16 kts 359°
2026-04-30 21:20 40.49046 -3.58821 1976 ft 16 kts
2026-04-30 21:20 40.49113 -3.58855 1976 ft 7 kts 283°
2026-04-30 21:21 40.49122 -3.58921 1976 ft 8 kts 272°
2026-04-30 21:21 40.49122 -3.58976 1976 ft 3 kts 270°
2026-04-30 21:21 40.49122 -3.58988 1976 ft 0 kts 270°